Flag for United Kingdom Weather past 2 weeks in Lichfield, England, United Kingdom

46 °F


Feels Like: 44 °F
Forecast: 42 / 58 °F
Wind: 5 mph from South

Location: Birmingham / Airport

Current Time: Oct 9, 2015 at 1:25:40 AM

Latest Report: Oct 9, 2015 at 12:50 AM

Visibility: 10 mi

Pressure: 30.18 "Hg

Humidity: 93%

Dew point: 45 °F

Location of LichfieldLocation

Historic Weather in Lichfield — Graph


Lichfield temperature yesterday

Maximum temperature yesterday: 61 °F (at 2:20 PM)
Minimum temperature yesterday: 43 °F (at 2:50 AM)
Average temperature yesterday: 51 °F

Past Weeks' High & Low Weather Summary

High66 °F (Oct 5, 4:20 PM)100% (Sep 24, 1:20 AM)30.66 "Hg (Sep 24, 1:20 AM)
Low39 °F (Sep 26, 3:50 AM)48% (Sep 24, 4:20 PM)29.36 "Hg (Oct 6, 1:50 PM)
Average54 °F82%30.15 "Hg
* Reported Sep 24 12:20 AM — Oct 9 12:20 AM, Lichfield, Weather by CustomWeather, © 2015

Note: Actual official high and low records may vary slightly from our data, if they occured in-between our weather recording intervals... More about our weather records


Lichfield weather history for previous 24 hours

Time TempWeatherWind HumidityBarometerVisibility
12:20 AM
Fri, Oct 9
50 °FClear.5 mph88%30.21 "Hg10 mi
11:50 PM
Thu, Oct 8
48 °FClear.3 mph94%30.21 "Hg10 mi
11:20 PM46 °FClear.5 mph100%30.21 "Hg10 mi
10:20 PM48 °FClear.5 mph94%30.18 "Hg10 mi
9:50 PM48 °FClear.3 mph94%30.18 "Hg10 mi
9:20 PM50 °FClear.3 mph88%30.18 "Hg10 mi
8:50 PM50 °FClear.5 mph88%30.18 "Hg10 mi
8:20 PM52 °FClear.2 mph82%30.18 "Hg10 mi
7:50 PM52 °FClear.3 mph82%30.18 "Hg10 mi
7:20 PM55 °FSunny.2 mph72%30.18 "Hg10 mi
6:50 PM57 °FSunny.2 mph67%30.18 "Hg10 mi
6:20 PM57 °FSunny.3 mph67%30.15 "Hg10 mi
5:50 PM57 °FPassing clouds.3 mph72%30.15 "HgN/A
5:20 PM59 °FPassing clouds.5 mph63%30.15 "HgN/A
4:50 PM59 °FPassing clouds.6 mph63%30.15 "HgN/A
4:20 PM61 °FPassing clouds.5 mph59%30.15 "HgN/A
3:50 PM61 °FScattered clouds.6 mph59%30.15 "HgN/A
3:20 PM59 °FScattered clouds.5 mph63%30.15 "HgN/A
2:50 PM61 °FRefreshingly cool.6 mph59%30.15 "HgN/A
2:20 PM61 °FRefreshingly cool.6 mph59%30.15 "HgN/A
1:50 PM59 °FScattered clouds.6 mph63%30.15 "HgN/A
1:20 PM59 °FScattered clouds.6 mph63%30.15 "HgN/A
12:50 PM59 °FScattered clouds.6 mph68%30.15 "HgN/A
12:20 PM59 °FScattered clouds.6 mph68%30.15 "HgN/A
11:50 AM59 °FPassing clouds.7 mph72%30.15 "HgN/A
11:20 AM59 °FPassing clouds.2 mph68%30.15 "HgN/A
10:50 AM57 °FPassing clouds.3 mph72%30.15 "HgN/A
10:20 AM55 °FSunny.2 mph77%30.12 "Hg10 mi
9:50 AM54 °FSunny.3 mph82%30.12 "Hg10 mi
9:20 AM52 °FSunny.No wind88%30.12 "Hg10 mi
8:50 AM50 °FSunny.2 mph88%30.12 "Hg10 mi
8:20 AM48 °FSunny.3 mph94%30.09 "Hg10 mi
7:50 AM43 °FClear.3 mph100%30.09 "Hg10 mi
7:20 AM43 °FClear.2 mph93%30.09 "Hg10 mi
6:50 AM45 °FClear.3 mph100%30.09 "Hg10 mi
6:20 AM45 °FClear.2 mph93%30.09 "Hg10 mi
5:50 AM43 °FClear.No wind100%30.07 "Hg10 mi
5:20 AM43 °FClear.2 mph93%30.07 "Hg10 mi
4:50 AM43 °FClear.3 mph100%30.07 "Hg10 mi
4:20 AM43 °FClear.2 mph100%30.07 "Hg10 mi
3:50 AM43 °FClear.2 mph93%30.04 "Hg10 mi
3:20 AM43 °FPassing clouds.No wind93%30.04 "HgN/A
2:50 AM43 °FPassing clouds.2 mph93%30.04 "HgN/A
2:20 AM45 °FClear.2 mph87%30.04 "Hg10 mi
1:50 AM46 °FClear.3 mph87%30.04 "Hg10 mi
1:20 AM46 °FPassing clouds.5 mph87%30.04 "HgN/A
Weather by CustomWeather, © 2015

See weather overviewHow to use our weather pages